EW0200 Weather Reports


time (UTC)temp
F
wind
direction
speed
knots
gust
knots
rain 1hr
in
rain 24hr
in
rain mn
in
humidity
%
barometer
mb
20260906154337 71 50 2.6 5.2 0.00 0.00 0.00 91 1021.0
20260906153334 71 62 3.5 6.1 0.00 0.00 0.00 91 1021.1
20260906152325 71 55 3.5 5.2 0.00 0.00 0.00 92 1020.9
20260906151325 70 53 3.5 5.2 0.00 0.00 0.00 92 1020.9
20260906150326 70 1 0.9 2.6 0.00 0.00 0.00 92 1020.7
20260906145320 70 43 0.9 4.3 0.00 0.00 0.00 92 1020.8
20260906144316 69 47 0.9 2.6 0.00 0.00 0.00 92 1020.7
20260906143313 69 58 1.7 3.5 0.00 0.00 0.00 93 1020.7
20260906142335 68 52 1.7 2.6 0.00 0.00 0.00 93 1020.7
20260906141333 68 57 0.9 2.6 0.00 0.00 0.00 94 1020.8
20260906140332 67 77 0.0 1.7 0.00 0.00 0.00 95 1020.7
20260906135331 66 98 0.0 2.6 0.00 0.00 0.00 95 1020.8
20260906134312 66 95 0.0 0.0 0.00 0.00 0.00 96 1020.7
20260906133313 65 59 0.9 6.1 0.00 0.00 0.00 96 1020.9
20260906132311 65 64 1.7 3.5 0.00 0.00 0.00 97 1020.9
20260906131329 64 54 0.0 0.0 0.00 0.00 0.00 98 1020.7
20260906130311 64 348 0.0 0.0 0.00 0.00 0.00 98 1020.8
20260906125329 64 348 0.0 0.0 0.00 0.00 0.00 98 1020.8
20260906124329 63 348 0.0 0.0 0.00 0.00 0.00 98 1020.8
20260906123328 63 348 0.0 0.0 0.00 0.00 0.00 98 1020.7
20260906122353 63 348 0.0 0.0 0.00 0.00 0.00 98 1020.5
20260906121329 63 348 0.0 0.0 0.00 0.00 0.00 98 1020.4
20260906120346 62 348 0.0 0.0 0.00 0.00 0.00 98 1020.3
20260906115325 63 346 0.0 0.0 0.00 0.00 0.00 98 1020.3
20260906114344 63 346 0.0 0.0 0.00 0.00 0.00 98 1020.1
20260906113323 63 346 0.0 0.0 0.00 0.00 0.00 98 1020.2
20260906112319 63 346 0.0 0.0 0.00 0.00 0.00 98 1020.2
20260906111315 63 53 0.0 0.0 0.00 0.00 0.00 98 1020.0
20260906110314 63 53 0.0 0.0 0.00 0.00 0.00 98 1019.8
20260906105338 63 68 0.0 0.9 0.00 0.00 0.00 99 1019.6
20260906104333 62 141 0.0 0.0 0.00 0.00 0.00 98 1019.2
20260906103311 63 141 0.0 0.0 0.00 0.00 0.00 98 1019.2
20260906102357 63 141 0.0 0.0 0.00 0.00 0.00 97 1019.2
20260906101317 63 141 0.0 0.0 0.00 0.00 0.00 98 1019.3
20260906100315 63 141 0.0 0.0 0.00 0.00 0.00 98 1019.3
20260906095316 63 141 0.0 0.0 0.00 0.00 0.00 98 1019.2
20260906094312 64 141 0.0 0.0 0.00 0.00 0.00 98 1019.3
20260906093312 64 141 0.0 0.0 0.00 0.00 0.00 98 1019.4
20260906092354 64 141 0.0 0.0 0.00 0.00 0.00 98 1019.4
20260906091330 64 144 0.0 0.0 0.00 0.00 0.00 98 1019.3
20260906090328 64 144 0.0 0.0 0.00 0.00 0.00 98 1019.2
20260906085325 64 144 0.0 0.0 0.00 0.00 0.00 98 1019.2
20260906084326 65 144 0.0 0.0 0.00 0.00 0.00 98 1019.3
20260906083327 65 144 0.0 0.0 0.00 0.00 0.00 98 1019.3
20260906082328 65 144 0.0 0.0 0.00 0.00 0.00 98 1019.1
20260906081329 65 145 0.0 0.0 0.00 0.00 0.00 98 1019.1
20260906080345 65 145 0.0 0.0 0.00 0.00 0.00 98 1019.2
20260906075326 65 144 0.0 0.0 0.00 0.00 0.00 98 1019.3
20260906074353 65 144 0.0 0.0 0.00 0.00 0.00 98 1019.3
20260906073333 65 144 0.0 0.0 0.00 0.00 0.00 98 1019.2
20260906072330 65 144 0.0 0.0 0.00 0.00 0.00 98 1019.0
20260906071329 64 144 0.0 0.0 0.00 0.00 0.00 97 1019.2
20260906070328 65 144 0.0 0.0 0.00 0.00 0.00 97 1019.2
20260906065326 65 144 0.0 0.0 0.00 0.00 0.00 97 1019.3
20260906064343 65 165 0.0 0.0 0.00 0.00 0.00 97 1019.1
20260906063321 65 205 0.0 0.0 0.00 0.00 0.00 97 1019.2
20260906062342 66 205 0.0 0.0 0.00 0.00 0.00 97 1019.3
20260906061317 66 205 0.0 0.0 0.00 0.00 0.00 97 1019.3
20260906060314 67 206 0.0 0.0 0.00 0.00 0.00 97 1019.4
20260906055329 67 206 0.0 0.0 0.00 0.00 0.00 97 1019.3
20260906054335 67 206 0.0 0.0 0.00 0.00 0.00 97 1019.2
20260906053326 67 206 0.0 0.0 0.00 0.00 0.00 97 1019.2
20260906052328 68 206 0.0 0.0 0.00 0.00 0.00 97 1019.1
20260906051347 68 206 0.0 0.0 0.00 0.00 0.00 97 1019.1
20260906050330 68 216 0.0 0.0 0.00 0.00 0.00 97 1019.1
20260906045326 68 217 0.0 0.0 0.00 0.00 0.00 96 1019.3
20260906044344 68 222 0.0 0.0 0.00 0.00 0.00 96 1019.3
20260906043321 68 222 0.0 0.0 0.00 0.00 0.00 95 1019.2
20260906042346 69 222 0.0 0.0 0.00 0.00 0.00 95 1019.0
20260906041323 69 222 0.0 0.0 0.00 0.00 0.00 95 1018.9
20260906040342 69 222 0.0 0.0 0.00 0.00 0.00 95 1018.9
20260906035316 69 222 0.0 0.0 0.00 0.00 0.00 95 1018.8
20260906034313 69 222 0.0 0.0 0.00 0.00 0.00 95 1018.6
20260906033330 69 222 0.0 0.0 0.00 0.00 0.00 95 1018.3
20260906032331 69 222 0.0 0.0 0.00 0.00 0.00 95 1018.1
20260906031324 70 222 0.0 0.0 0.00 0.00 0.00 95 1018.1
20260906030327 70 222 0.0 0.0 0.00 0.00 0.00 94 1018.0
20260906025341 70 222 0.0 0.0 0.00 0.00 0.00 94 1018.2
20260906024316 70 222 0.0 0.0 0.00 0.00 0.00 94 1018.1
20260906023316 70 222 0.0 0.0 0.00 0.00 0.00 94 1018.0
20260906022318 71 222 0.0 0.0 0.00 0.00 0.00 93 1017.9
20260906021336 71 222 0.0 0.0 0.00 0.00 0.00 93 1017.7
20260906020335 71 222 0.0 0.0 0.00 0.00 0.00 93 1017.5
20260906015330 71 222 0.0 0.0 0.00 0.00 0.00 92 1017.2
20260906014347 72 222 0.0 0.0 0.00 0.00 0.00 92 1017.0
20260906013320 72 153 0.0 0.0 0.00 0.00 0.00 91 1016.8
20260906012321 72 153 0.0 0.0 0.00 0.00 0.00 91 1017.1
20260906011317 73 137 0.0 0.0 0.00 0.00 0.00 90 1017.0
20260906010318 73 137 0.0 0.0 0.00 0.00 0.00 90 1016.9
20260906005320 73 137 0.0 0.0 0.00 0.00 0.00 89 1017.0
20260906004320 74 137 0.0 0.0 0.00 0.00 0.00 88 1016.9
20260906003322 75 137 0.0 0.0 0.00 0.00 0.00 86 1016.9
20260906002321 76 137 0.0 0.0 0.00 0.00 0.00 85 1016.9
20260906001339 77 137 0.0 0.0 0.00 0.00 0.00 83 1016.9
20260906000319 78 137 0.0 0.0 0.00 0.00 0.00 81 1016.9
20260905235320 80 143 0.0 0.0 0.00 0.00 0.00 79 1017.0
20260905234320 79 143 0.0 0.9 0.00 0.00 0.00 81 1017.1
20260905233322 79 148 0.0 6.1 0.00 0.00 0.00 82 1017.1
20260905232350 80 107 0.0 4.3 0.00 0.00 0.00 81 1017.1
20260905231326 81 68 0.9 3.5 0.00 0.00 0.00 78 1017.2
20260905230344 81 110 0.0 1.7 0.00 0.00 0.00 79 1017.0
20260905225320 79 143 0.9 10.4 0.00 0.00 0.00 83 1017.1
20260905224343 78 68 6.1 10.4 0.00 0.00 0.00 83 1017.1
20260905223322 78 68 4.3 10.4 0.00 0.00 0.00 82 1017.1
20260905222321 79 65 6.1 8.7 0.00 0.00 0.00 83 1016.9
20260905221339 78 58 1.7 7.0 0.00 0.00 0.00 83 1016.8
20260905220317 78 64 6.1 9.6 0.00 0.00 0.00 84 1016.8
20260905215317 78 60 5.2 7.0 0.00 0.00 0.00 83 1016.7
20260905214317 78 62 5.2 7.8 0.00 0.00 0.00 83 1016.6
20260905213316 78 54 2.6 4.3 0.00 0.00 0.00 84 1016.8
20260905212342 77 52 3.5 6.1 0.00 0.00 0.00 85 1017.0
20260905211338 77 64 4.3 7.0 0.00 0.00 0.00 85 1017.1
20260905210315 77 58 2.6 5.2 0.00 0.00 0.00 85 1017.0
20260905205316 77 58 5.2 8.7 0.00 0.00 0.00 86 1017.2
20260905204317 77 60 4.3 10.4 0.00 0.00 0.00 84 1017.1
20260905203317 77 62 5.2 9.6 0.00 0.00 0.00 85 1016.8
20260905202317 77 60 6.1 8.7 0.00 0.00 0.00 86 1016.8
20260905201319 76 62 5.2 7.0 0.00 0.00 0.00 85 1016.8
20260905200318 76 53 4.3 7.0 0.00 0.02 0.00 87 1016.9
20260905195337 76 57 3.5 6.1 0.00 0.02 0.00 87 1017.1
20260905194315 77 51 3.5 6.1 0.00 0.02 0.00 85 1017.2
20260905193313 78 46 0.9 2.6 0.00 0.02 0.00 84 1017.2
20260905192312 77 113 0.0 3.5 0.00 0.02 0.00 84 1017.2
20260905191327 77 66 0.9 3.5 0.00 0.02 0.00 84 1017.3
20260905190325 77 49 0.9 7.8 0.00 0.02 0.00 85 1017.3
20260905185324 77 50 0.9 7.0 0.00 0.02 0.00 85 1017.3
20260905184322 78 54 1.7 5.2 0.00 0.02 0.00 84 1017.3
20260905183319 76 84 0.0 4.3 0.00 0.02 0.00 86 1017.4
20260905182322 76 118 0.9 8.7 0.00 0.02 0.00 87 1017.4
20260905181325 76 52 5.2 8.7 0.00 0.02 0.00 86 1017.5
20260905180324 77 54 2.6 7.0 0.00 0.02 0.00 87 1017.4
20260905175349 76 46 3.5 7.8 0.00 0.02 0.00 86 1017.3
20260905174328 76 56 5.2 9.6 0.00 0.02 0.00 88 1017.3
20260905173325 76 65 4.3 7.0 0.00 0.02 0.00 87 1017.5
20260905172321 76 59 4.3 6.1 0.00 0.02 0.00 88 1017.5
20260905171318 75 63 4.3 6.1 0.00 0.02 0.00 89 1017.5
20260905170317 75 64 5.2 7.0 0.00 0.02 0.00 89 1017.6
20260905165315 75 47 4.3 6.1 0.00 0.02 0.00 91 1017.7
20260905164313 74 41 3.5 5.2 0.00 0.02 0.00 92 1017.8
20260905163312 74 63 4.3 6.1 0.00 0.02 0.00 92 1017.7
20260905162312 74 58 2.6 5.2 0.00 0.02 0.00 92 1017.6
20260905161314 74 62 0.9 3.5 0.00 0.02 0.00 92 1017.6
20260905160314 74 65 0.0 1.7 0.00 0.02 0.00 92 1017.7
20260905155332 74 39 0.9 3.5 0.00 0.02 0.00 92 1017.6